Location: Ferchesar
(52.6477°N, 12.4298°E)
Time: 20:29:35
(UTC+01:00)

A-11 Canister half - Pass Details

Date: 08 December 2021
Orbit: 1516 x 1684 km, 47.2° (Epoch: 23 January)

Event Time Altitude Azimuth Distance (km) Brightness Sun altitude
Rises 04:42:18 0° 193° (SSW) 4,714 11.4 -29.9°
Reaches altitude 10° 04:46:09 10° 180° (S) 3,759 11.0 -29.3°
Maximum altitude 04:53:03 23° 133° (SE) 2,915 10.9 -28.3°
Drops below altitude 10° 05:00:07 10° 86° (E) 3,869 12.1 -27.2°
Sets 05:04:07 0° 74° (ENE) 4,885 12.7 -26.6°
